Temperature
19 19 19 19 18 18 18 18 18 18 18 17 17 17 17 17 17 17 16 17 17 17 16 16 16 16 16 16 16 16 16 16 17 17 16 16 16 15 15 15 15 15 15
19 19 19 18 18 18 18 17 17 17 17 17 17 17 17 17 16 16 16 16 16 16 16 16 16 16 16 16 16 16 16 16 16 16 16 16 15 15 15 15 15 15 15
19 18 18 18 18 18 18 17 17 17 17 17 17 17 17 16 16 16 16 15 15 15 15 15 15 15 15 15 15 15 15 15 15 15 16 15 15 15 15 15 15 15 15
18 18 18 18 18 18 17 17 17 17 17 17 17 17 17 16 16 16 15 15 15 15 15 15 15 15 15 15 15 15 15 15 15 15 15 15 15 15 14 15 15 15 15
18 18 18 18 17 17 17 17 17 17 17 17 16 16 16 16 16 16 15 15 15 15 15 14 14 15 15 15 15 15 14 15 15 15 15 15 15 14 15 14 15 15 15
18 18 18 17 17 17 17 17 16 16 16 16 16 16 16 16 16 16 16 15 15 14 14 14 14 14 14 15 14 14 14 14 14 14 15 15 14 14 14 14 14 14 14
17 17 17 17 17 17 17 16 16 16 16 16 16 15 15 16 16 15 15 15 15 14 14 14 14 14 14 14 14 14 14 14 14 14 14 14 14 14 13 13 13 13 14
17 17 17 17 17 17 16 16 16 16 16 16 15 15 15 15 15 15 15 15 14 14 14 14 14 14 14 13 13 13 13 13 13 13 13 13 13 13 13 13 13 13 13
17 17 17 17 17 16 16 16 16 16 15 15 15 15 15 15 15 15 15 14 14 14 14 14 13 13 14 13 13 13 13 13 13 13 13 13 13 13 13 12 12 13 13
17 16 16 16 16 16 16 16 15 15 15 15 14 15 14 14 15 15 14 14 14 14 14 13 14 13 13 13 13 13 13 13 13 12 12 12 12 12 12 12 12 12 13
16 16 16 16 16 15 15 15 15 15 14 14 14 14 14 14 14 14 14 14 13 13 13 13 13 13 13 13 13 13 13 12 12 12 12 12 12 12 12 12 12 12 12
16 15 15 15 15 15 15 15 14 14 14 14 14 14 14 13 14 14 13 13 13 13 13 13 13 13 13 13 12 12 12 12 12 12 12 12 12 12 12 12 11 11 11
15 15 15 15 15 14 14 14 14 14 14 14 14 14 13 13 13 13 13 13 13 13 12 13 13 13 12 12 12 12 12 12 12 12 12 12 12 12 11 11 11 11 11
15 15 15 14 14 14 14 14 14 14 14 14 13 13 13 13 13 13 13 13 13 12 12 12 12 12 12 12 12 11 11 11 11 11 11 11 11 11 11 11 11 11 11
14 14 14 14 14 13 14 13 13 13 13 13 13 13 12 12 12 12 12 12 12 12 12 12 12 12 12 12 11 11 11 11 11 11 11 11 11 11 11 11 10 10 11
14 14 14 14 13 13 13 13 13 13 13 13 12 12 12 12 12 12 12 12 12 12 12 12 12 11 11 11 11 11 11 11 10 10 10 10 10 10 10 10 10 10 10
13 13 13 13 13 13 13 13 13 12 12 12 12 12 12 12 12 12 12 12 12 12 12 12 11 11 11 11 11 11 10 10 10 10 10 10 10 10 10 10 10 10 10
13 13 13 13 13 13 12 12 12 12 12 12 12 11 11 11 11 11 11 11 11 11 11 11 11 11 10 10 10 10 10 10 10 9 9 9 9 9 9 9 9 9 9
13 13 12 12 12 12 12 12 12 12 12 12 12 11 11 11 11 11 11 11 11 11 11 11 10 10 10 10 10 10 9 9 9 9 9 9 9 9 9 9 9 8 8
12 12 12 12 12 12 12 12 12 12 11 11 11 11 11 11 11 11 11 10 10 10 10 10 10 10 10 10 9 9 9 9 9 9 8 8 8 8 8 8 8 8 8
12 12 12 12 12 12 12 12 12 11 11 11 11 11 10 10 10 10 10 10 10 10 10 10 9 9 9 9 9 9 9 9 8 8 8 8 8 8 7 7 7 7 7
12 11 11 11 11 11 11 11 11 11 11 11 10 10 10 10 10 10 10 10 10 9 9 9 9 9 9 9 8 8 8 8 8 8 8 7 7 7 7 7 7 7 7
11 11 11 11 11 11 11 11 11 11 11 10 10 10 10 10 10 10 10 9 9 9 9 9 9 8 8 8 8 8 8 7 7 7 7 7 7 7 7 7 7 7 7
11 11 11 11 11 10 10 10 10 10 10 10 10 10 10 9 9 9 9 9 9 9 8 8 8 8 8 7 7 7 7 7 7 7 7 7 6 6 6 6 6 6 6
11 11 11 10 10 10 10 10 10 10 10 10 9 9 9 9 9 9 9 8 8 8 8 8 8 7 7 7 7 7 7 7 6 6 6 6 6 6 6 6 6 6 6
10 10 10 10 10 10 10 10 9 9 9 9 9 9 9 9 8 8 8 8 8 8 7 7 7 7 7 6 6 6 6 6 6 6 6 5 5 5 5 5 5 6 6
Wind_Speed
6 5 5 4 4 4 4 4 3 3 3 3 3 3 3 3 3 3 4 3 4 3 3 3 3 3 3 3 3 3 3 4 5 3 2 1 2 3 2 4 5 5 5
6 6 5 5 4 4 4 4 4 3 4 4 3 3 3 3 3 4 4 3 3 3 3 3 3 3 3 3 3 3 3 3 5 4 3 2 2 3 3 5 4 5 4
6 6 5 5 4 4 4 4 3 3 4 4 3 3 3 3 3 3 3 3 3 3 3 3 3 3 3 3 4 4 3 4 4 4 4 2 3 2 3 4 4 3 5
4 5 5 5 4 4 4 3 3 3 3 3 3 3 3 3 2 3 3 3 3 2 3 3 3 3 3 4 4 4 4 4 4 5 4 3 3 2 3 4 3 3 4
4 4 4 4 4 3 3 3 3 3 3 3 3 3 3 3 2 2 3 3 3 3 2 2 2 2 3 4 4 4 4 4 4 4 4 3 3 2 3 4 4 4 4
3 3 3 3 3 4 3 3 3 2 2 2 2 2 3 2 2 1 3 3 3 3 3 2 3 2 2 3 3 4 4 5 5 4 4 4 3 4 4 5 5 5 4
2 2 2 3 3 3 3 3 3 3 3 3 2 2 2 0 2 0 2 3 3 2 2 3 3 1 2 3 3 5 4 4 4 5 5 5 4 4 5 6 5 6 6
2 2 2 2 2 3 3 2 2 2 2 2 2 2 2 1 2 1 2 3 2 2 2 3 3 3 2 3 4 4 4 3 4 5 5 5 5 4 5 7 7 7 7
2 2 1 1 2 2 3 3 2 2 2 2 2 2 2 1 2 1 3 2 2 2 2 2 3 2 2 3 4 4 4 4 4 3 4 5 5 5 6 6 6 6 6
1 1 2 2 2 1 1 2 2 2 2 2 2 2 2 1 3 2 2 2 2 2 2 2 2 1 1 2 4 4 4 5 5 4 5 6 7 7 7 6 7 7 7
1 1 1 2 2 2 2 2 2 2 2 2 1 1 1 1 3 3 2 2 2 3 2 2 1 4 2 3 6 4 4 6 6 6 5 5 5 5 5 6 6 7 7
1 1 2 2 1 2 2 2 2 2 3 2 2 1 1 2 2 3 3 4 5 3 3 2 0 3 3 4 4 3 5 7 6 5 4 4 4 4 4 5 5 7 7
2 2 2 2 1 2 3 2 2 2 1 1 1 1 0 0 1 4 5 4 4 4 3 2 1 2 4 5 5 6 6 6 5 5 5 5 4 4 5 4 5 6 7
2 2 2 1 1 2 1 1 1 1 0 0 0 1 1 1 1 1 1 2 3 4 3 2 6 7 6 4 4 5 4 4 5 5 5 5 4 4 4 4 5 5 6
2 1 1 1 2 1 1 1 1 2 2 1 1 1 1 2 2 3 2 3 3 2 3 3 3 3 3 3 3 3 4 4 4 5 5 5 5 5 5 5 5 6 6
2 1 1 1 1 1 1 2 4 3 4 3 3 2 2 3 3 2 2 2 3 3 3 3 3 3 3 3 3 3 4 4 4 5 5 5 6 6 6 5 5 5 6
1 1 1 0 0 0 0 1 0 1 3 3 2 1 1 1 1 1 2 2 3 3 3 3 3 3 3 4 4 4 4 3 3 4 5 5 5 6 5 5 5 5 6
1 1 0 0 0 1 1 1 1 1 1 1 2 3 2 2 1 1 1 2 2 2 3 3 3 3 4 4 4 4 4 4 4 4 5 5 5 5 5 5 5 5 6
0 0 0 1 1 1 1 1 1 1 2 2 1 1 2 3 4 3 2 2 3 3 3 4 4 4 4 4 4 4 4 4 4 4 5 5 5 5 5 5 5 5 6
0 1 1 1 1 1 1 1 1 1 2 2 2 2 1 2 2 1 2 2 3 4 4 4 4 4 4 4 4 4 4 4 5 5 4 5 5 5 5 6 6 5 5
0 1 1 1 1 1 1 1 1 1 2 2 2 1 2 3 3 3 3 3 3 4 4 4 4 4 4 3 4 4 4 4 4 5 5 5 4 4 5 5 6 6 6
0 0 0 1 1 1 1 2 2 2 3 3 3 1 3 4 3 3 2 2 2 3 3 4 4 4 3 4 4 4 4 5 5 5 5 5 5 5 5 6 6 7 6
0 0 0 0 1 1 2 2 2 2 3 3 3 3 1 2 3 3 2 2 2 3 3 3 3 4 4 4 4 4 4 5 6 6 6 6 6 6 6 7 8 8 8
1 1 0 0 1 1 1 2 2 2 3 3 3 3 3 2 3 3 3 3 2 2 3 3 3 4 5 5 5 5 5 6 7 6 7 7 7 6 6 7 7 8 8
1 1 1 1 2 2 2 2 3 3 3 3 3 3 3 3 3 3 3 3 3 3 3 4 4 4 5 6 6 6 7 8 8 9 8 7 7 7 7 7 7 8 8
2 2 2 2 2 2 2 3 3 3 3 3 3 3 3 3 3 3 3 3 3 3 4 4 4 5 6 6 6 8 7 7 8 9 9 7 8 7 8 7 9 8 9
Wind_Direction
189 191 197 198 203 212 220 227 229 240 240 241 243 242 242 242 246 253 265 264 261 265 266 250 255 277 273 267 260 261 260 266 267 268 267 242 257 274 240 249 241 230 207
185 188 194 199 205 212 217 224 228 233 237 237 241 242 243 241 247 250 259 263 263 263 271 274 270 257 254 268 273 267 265 266 267 269 265 254 252 252 251 258 250 240 242
180 185 189 198 204 213 219 220 226 230 236 237 234 240 247 248 248 252 255 258 261 264 267 274 284 283 277 276 270 268 265 255 257 259 257 268 264 255 256 254 254 264 258
185 185 185 198 205 208 212 215 221 224 224 229 233 233 236 240 247 253 250 253 263 271 279 283 290 292 286 281 264 263 266 265 256 255 260 258 256 244 261 266 260 252 265
191 194 189 196 201 201 199 205 214 224 224 221 227 230 238 234 243 251 252 248 254 262 271 275 279 293 318 300 292 279 271 267 262 260 262 267 272 272 271 273 276 272 256
190 198 191 188 193 198 195 198 198 207 224 217 225 235 244 252 69 25 281 266 261 260 264 271 253 226 225 225 272 301 296 270 273 272 270 274 274 278 288 282 282 279 275
176 188 194 198 195 200 201 193 200 201 206 215 223 238 254 340 88 135 273 262 251 253 255 265 278 283 248 272 238 225 239 243 260 267 275 281 277 280 283 278 277 280 283
155 164 177 203 200 195 194 196 203 207 203 215 227 234 239 192 115 164 264 234 246 248 250 255 268 287 302 300 276 261 261 257 245 247 267 275 284 285 269 270 280 272 264
149 151 163 186 184 194 192 195 199 194 199 212 214 217 224 172 128 167 257 232 230 241 249 261 269 277 18 310 275 265 262 258 231 227 260 265 284 281 283 278 275 273 274
175 180 167 176 184 185 180 182 180 197 201 209 202 198 196 195 148 161 265 245 239 245 232 229 169 244 351 289 270 269 267 273 275 248 239 241 249 246 235 252 270 273 275
163 161 149 161 186 168 141 156 169 185 180 186 165 164 174 171 149 155 250 265 270 265 265 261 212 144 203 257 272 274 285 287 271 267 261 256 252 253 250 250 260 268 275
137 137 146 158 162 128 134 146 149 162 169 170 171 184 180 177 156 166 205 249 292 279 281 286 2 140 206 245 259 276 280 273 269 270 272 274 276 276 273 272 270 268 273
137 125 124 136 144 143 150 153 159 165 179 171 187 227 245 258 158 169 193 222 259 267 287 339 293 233 239 236 226 244 255 263 277 280 278 278 277 280 281 273 263 260 261
115 113 122 134 143 135 150 147 129 120 114 74 334 303 325 336 343 343 285 232 224 247 274 236 212 224 238 255 248 243 260 284 291 288 284 282 284 281 277 283 282 279 275
100 96 106 106 102 109 94 38 73 64 62 61 15 347 338 314 6 15 323 307 294 292 287 270 270 261 253 257 263 271 277 281 280 283 284 284 282 282 283 284 282 280 278
96 90 79 78 99 125 110 78 62 74 90 84 42 358 14 36 39 15 339 330 314 293 272 272 278 283 285 286 286 284 276 275 282 285 286 285 283 281 282 281 281 279 278
81 65 66 68 132 173 123 112 82 92 121 129 121 59 5 32 43 4 309 282 265 249 264 286 291 291 292 294 295 296 295 294 291 285 284 285 288 289 287 285 283 280 285
43 80 339 279 248 229 223 235 235 258 271 281 157 153 174 201 226 268 294 305 285 248 277 293 297 299 301 302 302 301 299 297 289 288 290 292 294 293 291 287 283 288 292
265 253 278 289 253 238 228 220 240 256 280 294 314 117 182 210 210 220 213 288 304 301 295 297 300 301 300 302 303 303 307 305 301 297 296 298 297 294 291 292 294 300 289
232 107 233 266 262 252 236 232 252 275 283 284 283 291 266 252 276 255 239 277 298 305 302 299 302 305 303 300 301 305 309 312 310 298 294 295 298 298 294 292 292 289 283
327 124 179 254 298 309 293 282 284 278 276 275 269 251 247 264 276 285 285 291 294 302 310 310 306 305 302 304 304 306 307 306 309 311 309 304 302 299 295 291 290 288 284
318 354 299 309 315 305 300 290 295 306 300 289 283 230 193 254 283 293 296 302 305 305 309 305 308 319 319 309 304 306 307 310 316 319 316 312 308 302 296 291 288 286 283
288 229 202 298 287 235 258 276 299 305 304 304 301 300 285 281 290 304 312 307 306 311 320 323 321 327 339 335 328 318 313 314 316 318 313 307 302 298 293 287 286 288 285
326 317 325 309 298 277 284 299 301 301 304 310 309 309 306 295 296 312 317 321 326 324 327 325 321 332 341 336 331 330 336 332 321 309 305 299 296 294 292 291 288 287 287
302 298 286 280 284 283 282 285 297 307 308 308 311 314 315 307 300 305 312 315 313 316 324 323 323 329 334 333 334 339 355 349 329 315 302 294 290 291 290 289 289 290 286
290 288 282 278 279 278 277 281 289 299 300 301 301 299 299 296 295 300 306 311 313 315 315 315 320 326 329 327 342 351 352 342 328 312 299 291 288 289 291 288 287 285 285
Height
1515 1516 1517 1518 1518 1519 1519 1519 1519 1519 1518 1518 1518 1518 1518 1517 1517 1517 1518 1517 1517 1517 1517 1517 1516 1516 1517 1517 1517 1516 1516 1516 1516 1515 1515 1514 1513 1513 1512 1512 1512 1512 1511
1513 1514 1515 1515 1516 1516 1517 1517 1517 1516 1516 1516 1516 1515 1515 1515 1515 1515 1515 1515 1515 1515 1514 1514 1514 1514 1513 1513 1514 1514 1513 1513 1513 1512 1512 1512 1510 1510 1509 1509 1510 1510 1509
1511 1511 1512 1513 1513 1513 1514 1514 1514 1514 1514 1514 1514 1513 1513 1513 1513 1512 1512 1513 1513 1512 1512 1512 1512 1511 1511 1511 1510 1511 1511 1511 1510 1510 1509 1509 1509 1508 1507 1507 1507 1506 1507
1509 1509 1509 1510 1510 1511 1511 1511 1511 1511 1511 1511 1511 1511 1511 1511 1511 1510 1510 1510 1510 1510 1510 1509 1509 1509 1509 1509 1508 1508 1508 1508 1508 1508 1507 1507 1506 1506 1505 1505 1505 1504 1504
1506 1507 1507 1507 1508 1508 1509 1509 1509 1509 1509 1509 1509 1509 1509 1509 1509 1508 1508 1508 1508 1507 1507 1507 1507 1506 1506 1506 1506 1506 1506 1506 1506 1505 1505 1504 1504 1504 1503 1503 1502 1501 1501
1504 1504 1504 1505 1505 1506 1506 1506 1506 1506 1507 1507 1507 1507 1507 1507 1506 1506 1505 1505 1505 1505 1505 1505 1505 1504 1504 1503 1503 1503 1503 1503 1503 1502 1502 1501 1501 1501 1500 1500 1500 1499 1498
1501 1502 1502 1502 1502 1503 1503 1503 1503 1503 1504 1504 1505 1505 1505 1504 1504 1504 1503 1502 1503 1502 1503 1502 1503 1503 1502 1501 1501 1500 1500 1499 1499 1499 1499 1498 1498 1498 1497 1497 1496 1495 1495
1499 1499 1499 1499 1499 1500 1500 1500 1500 1500 1501 1502 1502 1502 1502 1502 1501 1501 1501 1500 1500 1500 1500 1500 1500 1499 1499 1498 1498 1498 1497 1497 1496 1496 1496 1495 1495 1494 1494 1493 1492 1491 1491
1497 1497 1497 1497 1497 1497 1497 1497 1498 1498 1498 1499 1500 1499 1499 1499 1499 1498 1498 1498 1498 1498 1498 1497 1497 1496 1496 1495 1495 1495 1494 1494 1493 1492 1492 1491 1491 1490 1490 1490 1489 1489 1488
1496 1495 1495 1495 1495 1495 1495 1495 1495 1496 1496 1497 1497 1497 1497 1497 1496 1496 1496 1496 1496 1496 1495 1495 1494 1494 1493 1493 1492 1492 1491 1491 1491 1490 1489 1488 1487 1487 1486 1486 1486 1486 1485
1494 1494 1493 1493 1493 1493 1493 1493 1493 1494 1494 1494 1495 1494 1494 1494 1494 1494 1493 1494 1494 1494 1493 1492 1492 1491 1490 1490 1490 1489 1489 1488 1487 1487 1486 1485 1484 1483 1483 1482 1481 1481 1481
1493 1492 1492 1492 1492 1492 1491 1491 1491 1491 1492 1492 1493 1492 1492 1492 1491 1491 1491 1491 1491 1491 1491 1490 1489 1488 1487 1487 1487 1486 1486 1485 1485 1484 1483 1482 1481 1480 1479 1479 1477 1477 1476
1491 1491 1491 1490 1491 1491 1491 1490 1490 1490 1490 1490 1491 1491 1491 1491 1490 1489 1489 1488 1488 1488 1488 1487 1486 1485 1484 1484 1484 1483 1483 1483 1482 1481 1480 1479 1478 1477 1476 1475 1474 1473 1472
1489 1489 1489 1489 1490 1490 1490 1490 1490 1490 1490 1489 1489 1489 1489 1489 1488 1487 1486 1486 1485 1485 1485 1484 1483 1482 1482 1481 1481 1480 1480 1479 1479 1478 1477 1476 1475 1474 1473 1472 1471 1470 1469
1488 1489 1488 1489 1489 1489 1489 1489 1489 1489 1488 1488 1488 1488 1487 1487 1486 1485 1485 1484 1484 1483 1482 1482 1481 1481 1480 1479 1478 1478 1477 1476 1475 1475 1474 1473 1472 1470 1469 1468 1467 1466 1465
1488 1488 1488 1488 1488 1488 1488 1488 1488 1487 1487 1486 1486 1486 1485 1485 1483 1483 1482 1482 1481 1480 1480 1480 1479 1478 1478 1477 1476 1475 1474 1473 1472 1471 1470 1469 1468 1467 1466 1465 1463 1462 1461
1488 1488 1488 1487 1488 1488 1487 1486 1486 1486 1485 1485 1484 1484 1484 1482 1481 1480 1480 1479 1479 1478 1478 1477 1477 1476 1475 1474 1473 1472 1471 1469 1468 1468 1467 1466 1464 1463 1462 1461 1460 1459 1458
1487 1487 1486 1486 1487 1486 1486 1485 1485 1485 1484 1483 1483 1483 1482 1481 1480 1479 1477 1477 1476 1476 1475 1475 1474 1473 1473 1472 1470 1469 1468 1467 1466 1465 1464 1462 1461 1460 1459 1457 1456 1455 1454
1486 1485 1485 1485 1485 1485 1485 1484 1484 1483 1483 1483 1482 1481 1480 1479 1478 1477 1475 1475 1475 1474 1474 1473 1472 1471 1470 1469 1468 1466 1465 1463 1462 1462 1461 1459 1458 1457 1455 1455 1453 1452 1451
1484 1484 1484 1484 1484 1484 1483 1483 1482 1482 1481 1481 1480 1480 1478 1477 1476 1475 1474 1474 1473 1473 1471 1470 1469 1468 1467 1466 1465 1463 1462 1461 1460 1459 1458 1457 1455 1454 1453 1451 1451 1449 1448
1484 1483 1482 1482 1482 1482 1482 1481 1481 1480 1480 1479 1479 1477 1476 1475 1475 1474 1473 1472 1471 1471 1469 1468 1467 1466 1465 1463 1462 1460 1459 1458 1457 1456 1455 1454 1452 1451 1450 1449 1447 1447 1445
1482 1482 1482 1482 1481 1481 1480 1480 1479 1478 1478 1478 1477 1476 1474 1474 1473 1472 1471 1470 1470 1469 1468 1466 1465 1463 1462 1461 1460 1458 1457 1456 1455 1453 1452 1450 1449 1448 1447 1445 1444 1443 1442
1481 1481 1481 1480 1480 1479 1479 1479 1478 1477 1477 1476 1476 1475 1473 1472 1471 1470 1469 1468 1467 1466 1465 1464 1462 1461 1459 1458 1457 1456 1455 1454 1452 1450 1449 1448 1446 1445 1443 1442 1441 1440 1439
1481 1480 1479 1479 1479 1478 1477 1477 1476 1476 1475 1475 1474 1473 1472 1470 1469 1468 1467 1466 1465 1464 1463 1461 1460 1459 1457 1455 1454 1453 1452 1450 1449 1447 1446 1444 1443 1441 1440 1439 1437 1436 1435
1479 1479 1478 1477 1477 1476 1476 1476 1475 1475 1474 1473 1472 1471 1470 1468 1467 1466 1465 1464 1463 1462 1460 1459 1458 1457 1455 1453 1452 1450 1449 1447 1445 1444 1442 1441 1439 1438 1436 1435 1433 1432 1430
1478 1477 1477 1476 1475 1475 1474 1474 1473 1473 1472 1471 1470 1469 1467 1466 1465 1464 1463 1461 1461 1459 1458 1457 1456 1454 1452 1451 1449 1447 1445 1443 1442 1440 1438 1437 1435 1434 1433 1431 1429 1428 1426